Time,TemperatureF,DewpointF,PressureIn,WindDirection,WindDirectionDegrees,WindSpeedMPH,WindSpeedGustMPH,Humidity,HourlyPrecipIn,Conditions,Clouds,dailyrainin,SoftwareType,DateUTC
2017-12-14 00:25:00,40.0,30.0,29.87,NNW,333,11.0,19.0,67,0.00,,,0.00,weatherlink.com 1.10,2017-12-14 06:25:00,
2017-12-14 00:40:00,39.7,29.0,29.88,NNW,331,12.0,19.0,67,0.00,,,0.00,weatherlink.com 1.10,2017-12-14 06:40:00,
2017-12-14 01:10:00,39.7,29.0,29.90,NW,319,15.0,15.0,67,0.00,,,0.00,weatherlink.com 1.10,2017-12-14 07:10:00,
2017-12-14 01:25:00,39.6,30.0,29.91,North,360,7.0,15.0,68,0.00,,,0.00,weatherlink.com 1.10,2017-12-14 07:25:00,
2017-12-14 01:56:00,38.0,29.0,29.92,NNW,338,9.0,14.0,70,0.00,,,0.00,weatherlink.com 1.10,2017-12-14 07:56:00,
2017-12-14 02:11:00,37.8,29.0,29.93,North,360,3.0,10.0,70,0.00,,,0.00,weatherlink.com 1.10,2017-12-14 08:11:00,
2017-12-14 02:26:00,37.6,29.0,29.93,NNW,338,4.0,7.0,71,0.00,,,0.00,weatherlink.com 1.10,2017-12-14 08:26:00,
2017-12-14 02:41:00,37.4,29.0,29.93,NNW,344,8.0,12.0,71,0.00,,,0.00,weatherlink.com 1.10,2017-12-14 08:41:00,
2017-12-14 02:56:00,37.3,28.0,29.94,NNW,344,6.0,13.0,70,0.00,,,0.00,weatherlink.com 1.10,2017-12-14 08:56:00,
2017-12-14 03:11:00,37.0,28.0,29.93,North,355,10.0,14.0,71,0.00,,,0.00,weatherlink.com 1.10,2017-12-14 09:11:00,
2017-12-14 03:26:00,36.8,28.0,29.93,North,351,3.0,10.0,71,0.00,,,0.00,weatherlink.com 1.10,2017-12-14 09:26:00,
2017-12-14 03:41:00,36.5,28.0,29.93,NNE,17,4.0,9.0,72,0.00,,,0.00,weatherlink.com 1.10,2017-12-14 09:41:00,
2017-12-14 03:56:00,36.3,28.0,29.93,NNW,348,5.0,12.0,72,0.00,,,0.00,weatherlink.com 1.10,2017-12-14 09:56:00,
2017-12-14 04:11:00,36.1,28.0,29.93,North,355,8.0,12.0,72,0.00,,,0.00,weatherlink.com 1.10,2017-12-14 10:11:00,
2017-12-14 04:26:00,36.0,28.0,29.94,North,351,3.0,14.0,72,0.00,,,0.00,weatherlink.com 1.10,2017-12-14 10:26:00,
2017-12-14 04:41:00,35.6,27.0,29.95,NNE,32,3.0,10.0,71,0.00,,,0.00,weatherlink.com 1.10,2017-12-14 10:41:00,
2017-12-14 04:56:00,35.0,26.0,29.97,NNE,12,2.0,9.0,71,0.00,,,0.00,weatherlink.com 1.10,2017-12-14 10:56:00,
2017-12-14 05:11:00,34.5,26.0,29.98,North,360,3.0,9.0,70,0.00,,,0.00,weatherlink.com 1.10,2017-12-14 11:11:00,
2017-12-14 05:26:00,34.1,25.0,29.98,North,360,5.0,11.0,70,0.00,,,0.00,weatherlink.com 1.10,2017-12-14 11:26:00,
2017-12-14 05:41:00,33.8,25.0,29.99,North,360,5.0,7.0,71,0.00,,,0.00,weatherlink.com 1.10,2017-12-14 11:41:00,
2017-12-14 05:56:00,33.2,24.0,30.00,North,355,6.0,10.0,70,0.00,,,0.00,weatherlink.com 1.10,2017-12-14 11:56:00,
2017-12-14 06:12:00,32.4,23.0,30.01,North,5,5.0,10.0,68,0.00,,,0.00,weatherlink.com 1.10,2017-12-14 12:12:00,
2017-12-14 06:26:00,32.3,23.0,30.01,North,351,5.0,7.0,69,0.00,,,0.00,weatherlink.com 1.10,2017-12-14 12:26:00,
2017-12-14 06:41:00,32.2,23.0,30.02,North,360,3.0,7.0,69,0.00,,,0.00,weatherlink.com 1.10,2017-12-14 12:41:00,
2017-12-14 06:57:00,32.1,23.0,30.03,North,355,5.0,7.0,69,0.00,,,0.00,weatherlink.com 1.10,2017-12-14 12:57:00,
2017-12-14 07:11:00,32.0,23.0,30.03,NNE,20,4.0,7.0,70,0.00,,,0.00,weatherlink.com 1.10,2017-12-14 13:11:00,
2017-12-14 07:26:00,31.8,23.0,30.04,North,11,2.0,7.0,70,0.00,,,0.00,weatherlink.com 1.10,2017-12-14 13:26:00,
2017-12-14 07:41:00,31.7,23.0,30.04,North,11,4.0,6.0,70,0.00,,,0.00,weatherlink.com 1.10,2017-12-14 13:41:00,
2017-12-14 07:56:00,31.6,23.0,30.05,NNE,26,3.0,7.0,70,0.00,,,0.00,weatherlink.com 1.10,2017-12-14 13:56:00,
2017-12-14 08:12:00,31.5,22.0,30.06,NNE,15,0.0,6.0,69,0.00,,,0.00,weatherlink.com 1.10,2017-12-14 14:12:00,
2017-12-14 08:27:00,31.7,23.0,30.06,NNE,25,2.0,6.0,70,0.00,,,0.00,weatherlink.com 1.10,2017-12-14 14:27:00,
2017-12-14 08:42:00,31.7,23.0,30.06,NE,34,2.0,7.0,69,0.00,,,0.00,weatherlink.com 1.10,2017-12-14 14:42:00,
2017-12-14 08:57:00,32.4,23.0,30.07,North,5,2.0,4.0,69,0.00,,,0.00,weatherlink.com 1.10,2017-12-14 14:57:00,
2017-12-14 09:12:00,32.8,24.0,30.08,North,355,1.0,8.0,69,0.00,,,0.00,weatherlink.com 1.10,2017-12-14 15:12:00,
2017-12-14 09:27:00,33.0,23.0,30.09,NNE,24,1.0,8.0,68,0.00,,,0.00,weatherlink.com 1.10,2017-12-14 15:27:00,
2017-12-14 09:42:00,33.6,24.0,30.10,North,360,3.0,6.0,67,0.00,,,0.00,weatherlink.com 1.10,2017-12-14 15:42:00,